Location: Krakow
(50.0830°N, 19.9170°E)
Time: 12:11:43
(UTC+01:00)

Vanguard 3 - Visible Passes

Search period start: 15 March 2026 00:00
Search period end: 25 March 2026 00:00
Orbit: 507 x 3205 km, 33.4° (Epoch: 14 March)

Date Brightness Start Highest point End Pass type
(mag) Time Alt. Az. Time Alt. Az. Time Alt. Az.
16 Mar 11.3 05:17:55 10° SSE 05:24:37 15° SE 05:32:22 10° ESE visible
18 Mar 11.1 04:45:57 10° SSE 04:51:15 13° SE 04:57:22 10° ESE visible
20 Mar 11.0 04:14:35 10° SE 04:18:03 11° SE 04:21:55 10° ESE visible
21 Mar 10.6 04:58:16 10° S 05:06:08 21° SE 05:16:31 10° E visible
23 Mar 10.5 04:26:21 10° S 04:33:00 19° SE 04:41:46 10° ESE visible
